QPF
0.00 0.00 0.00 0.00 0.00 0.00 0.00 0.01 0.01 0.01 0.00 0.00 0.00 0.00 0.00 0.00 0.00 0.00 0.00 0.00 0.00 0.00 0.00 0.00 0.00 0.00 0.00 0.00 0.00 0.00 0.00 0.00 0.00 0.00 0.00 0.00 0.00 0.00 0.00 0.00 0.00 0.00 0.00 0.00
0.00 0.00 0.00 0.00 0.00 0.00 0.00 0.00 0.00 0.00 0.00 0.00 0.00 0.00 0.00 0.00 0.00 0.00 0.00 0.00 0.00 0.00 0.00 0.00 0.00 0.00 0.00 0.00 0.00 0.00 0.00 0.00 0.00 0.00 0.00 0.00 0.00 0.00 0.00 0.00 0.00 0.00 0.00 0.00
0.00 0.00 0.00 0.00 0.00 0.00 0.00 0.00 0.00 0.00 0.00 0.00 0.00 0.00 0.01 0.00 0.00 0.00 0.00 0.00 0.00 0.00 0.00 0.00 0.00 0.00 0.00 0.00 0.00 0.00 0.00 0.00 0.00 0.00 0.00 0.00 0.00 0.00 0.00 0.00 0.00 0.00 0.00 0.00
0.00 0.00 0.00 0.00 0.00 0.00 0.00 0.00 0.00 0.00 0.00 0.00 0.00 0.00 0.04 0.00 0.00 0.00 0.00 0.00 0.00 0.00 0.00 0.00 0.00 0.00 0.00 0.00 0.00 0.00 0.00 0.00 0.00 0.00 0.00 0.00 0.00 0.00 0.00 0.00 0.00 0.00 0.00 0.00
0.00 0.00 0.00 0.00 0.00 0.00 0.00 0.00 0.00 0.00 0.00 0.00 0.00 0.00 0.00 0.00 0.00 0.00 0.00 0.00 0.00 0.00 0.00 0.00 0.00 0.00 0.00 0.00 0.00 0.00 0.00 0.00 0.00 0.00 0.00 0.00 0.00 0.00 0.00 0.00 0.00 0.00 0.00 0.00
0.00 0.00 0.00 0.00 0.00 0.00 0.00 0.00 0.00 0.00 0.00 0.00 0.00 0.00 0.00 0.00 0.00 0.00 0.00 0.00 0.00 0.00 0.00 0.00 0.00 0.00 0.00 0.00 0.00 0.00 0.00 0.00 0.00 0.00 0.00 0.00 0.00 0.00 0.01 0.01 0.02 0.00 0.00 0.00
0.00 0.00 0.00 0.00 0.00 0.00 0.00 0.00 0.00 0.00 0.00 0.00 0.00 0.00 0.00 0.00 0.00 0.00 0.00 0.00 0.00 0.00 0.00 0.00 0.00 0.00 0.00 0.00 0.00 0.00 0.00 0.00 0.00 0.00 0.00 0.00 0.00 0.00 0.01 0.09 0.01 0.00 0.00 0.00
0.00 0.00 0.00 0.00 0.00 0.00 0.00 0.00 0.00 0.00 0.00 0.00 0.00 0.00 0.00 0.00 0.00 0.00 0.00 0.00 0.00 0.00 0.00 0.00 0.00 0.00 0.00 0.00 0.00 0.00 0.00 0.00 0.00 0.00 0.00 0.00 0.00 0.00 0.00 0.00 0.00 0.00 0.00 0.00
0.00 0.00 0.00 0.00 0.00 0.00 0.00 0.00 0.00 0.00 0.00 0.00 0.01 0.00 0.00 0.00 0.00 0.00 0.00 0.00 0.00 0.00 0.00 0.00 0.00 0.00 0.00 0.00 0.00 0.00 0.00 0.00 0.00 0.00 0.00 0.00 0.00 0.00 0.00 0.00 0.00 0.00 0.00 0.00
0.00 0.00 0.00 0.00 0.00 0.00 0.00 0.00 0.00 0.00 0.00 0.00 0.00 0.00 0.00 0.00 0.00 0.00 0.00 0.00 0.00 0.00 0.00 0.00 0.00 0.00 0.00 0.00 0.00 0.00 0.00 0.00 0.00 0.00 0.00 0.00 0.00 0.00 0.00 0.00 0.00 0.00 0.00 0.00
0.00 0.00 0.00 0.00 0.00 0.00 0.00 0.00 0.00 0.00 0.00 0.00 0.00 0.00 0.00 0.00 0.00 0.00 0.00 0.00 0.00 0.00 0.00 0.00 0.00 0.00 0.00 0.00 0.00 0.00 0.00 0.00 0.00 0.00 0.00 0.00 0.00 0.00 0.00 0.00 0.00 0.00 0.00 0.00
0.00 0.00 0.00 0.00 0.00 0.00 0.00 0.00 0.00 0.00 0.00 0.00 0.00 0.00 0.00 0.00 0.00 0.00 0.00 0.00 0.00 0.00 0.00 0.00 0.00 0.00 0.00 0.00 0.00 0.00 0.00 0.00 0.00 0.00 0.00 0.00 0.00 0.00 0.00 0.00 0.00 0.00 0.01 0.00
0.00 0.00 0.00 0.00 0.00 0.00 0.00 0.00 0.00 0.00 0.00 0.00 0.00 0.00 0.00 0.00 0.00 0.00 0.00 0.00 0.00 0.00 0.00 0.00 0.00 0.00 0.00 0.00 0.00 0.00 0.00 0.00 0.00 0.00 0.00 0.00 0.00 0.00 0.00 0.00 0.00 0.01 0.05 0.03
0.00 0.00 0.00 0.00 0.00 0.00 0.00 0.00 0.00 0.00 0.00 0.00 0.00 0.00 0.00 0.00 0.00 0.00 0.00 0.00 0.00 0.00 0.00 0.00 0.00 0.00 0.00 0.00 0.00 0.00 0.00 0.00 0.00 0.00 0.00 0.00 0.00 0.00 0.00 0.00 0.00 0.00 0.09 0.07
0.00 0.00 0.00 0.00 0.00 0.00 0.00 0.00 0.00 0.00 0.00 0.00 0.00 0.00 0.00 0.00 0.00 0.00 0.00 0.00 0.00 0.00 0.00 0.00 0.00 0.00 0.00 0.00 0.00 0.00 0.00 0.00 0.00 0.00 0.00 0.01 0.03 0.00 0.00 0.02 0.04 0.04 0.06 0.04
0.00 0.00 0.00 0.00 0.00 0.00 0.00 0.00 0.00 0.00 0.00 0.00 0.00 0.00 0.00 0.00 0.00 0.00 0.00 0.00 0.00 0.00 0.00 0.00 0.00 0.00 0.00 0.00 0.00 0.00 0.00 0.00 0.00 0.00 0.00 0.00 0.06 0.04 0.03 0.06 0.03 0.04 0.04 0.02
0.00 0.00 0.00 0.00 0.00 0.00 0.00 0.00 0.00 0.00 0.00 0.00 0.00 0.00 0.00 0.00 0.00 0.00 0.00 0.00 0.00 0.00 0.00 0.00 0.00 0.00 0.00 0.00 0.00 0.00 0.00 0.00 0.00 0.00 0.00 0.01 0.03 0.06 0.12 0.12 0.10 0.07 0.05 0.04
0.00 0.00 0.00 0.00 0.00 0.00 0.00 0.00 0.00 0.00 0.00 0.00 0.00 0.00 0.00 0.00 0.00 0.00 0.00 0.00 0.00 0.00 0.00 0.00 0.00 0.00 0.00 0.00 0.00 0.00 0.00 0.00 0.00 0.00 0.00 0.00 0.00 0.00 0.01 0.03 0.04 0.05 0.09 0.08
0.00 0.00 0.00 0.00 0.00 0.01 0.00 0.00 0.00 0.00 0.00 0.00 0.00 0.00 0.00 0.00 0.00 0.00 0.00 0.00 0.00 0.00 0.00 0.00 0.00 0.00 0.00 0.00 0.00 0.00 0.00 0.00 0.00 0.00 0.00 0.00 0.00 0.00 0.00 0.00 0.00 0.00 0.03 0.06
0.00 0.00 0.00 0.00 0.00 0.00 0.00 0.00 0.00 0.00 0.00 0.00 0.00 0.00 0.00 0.00 0.00 0.00 0.00 0.00 0.00 0.00 0.00 0.00 0.00 0.00 0.00 0.00 0.00 0.00 0.00 0.00 0.00 0.00 0.00 0.00 0.00 0.00 0.00 0.00 0.00 0.00 0.00 0.00
0.00 0.00 0.00 0.00 0.00 0.00 0.00 0.00 0.00 0.00 0.00 0.00 0.00 0.00 0.00 0.00 0.00 0.00 0.00 0.00 0.00 0.00 0.00 0.00 0.00 0.00 0.00 0.00 0.00 0.00 0.00 0.00 0.00 0.00 0.00 0.00 0.00 0.00 0.00 0.00 0.00 0.00 0.00 0.00
0.00 0.00 0.00 0.00 0.00 0.00 0.00 0.00 0.00 0.00 0.00 0.00 0.00 0.00 0.00 0.00 0.00 0.00 0.00 0.00 0.00 0.00 0.00 0.00 0.00 0.00 0.00 0.00 0.00 0.00 0.00 0.00 0.00 0.00 0.00 0.00 0.00 0.00 0.00 0.00 0.00 0.00 0.01 0.01
0.00 0.00 0.00 0.00 0.00 0.00 0.00 0.00 0.00 0.00 0.00 0.00 0.00 0.00 0.00 0.00 0.00 0.00 0.00 0.00 0.00 0.00 0.00 0.00 0.00 0.00 0.00 0.00 0.00 0.00 0.00 0.00 0.00 0.00 0.00 0.00 0.00 0.00 0.00 0.00 0.00 0.00 0.02 0.03
0.00 0.00 0.00 0.00 0.00 0.00 0.00 0.00 0.00 0.00 0.00 0.00 0.00 0.00 0.00 0.00 0.00 0.00 0.00 0.00 0.00 0.00 0.00 0.00 0.00 0.00 0.00 0.00 0.01 0.06 0.01 0.00 0.00 0.00 0.00 0.00 0.00 0.00 0.00 0.00 0.00 0.01 0.05 0.05
0.04 0.00 0.00 0.00 0.00 0.00 0.00 0.00 0.00 0.00 0.00 0.00 0.00 0.00 0.00 0.00 0.00 0.00 0.00 0.00 0.00 0.00 0.00 0.00 0.00 0.00 0.00 0.00 0.03 0.05 0.00 0.00 0.00 0.00 0.00 0.00 0.00 0.00 0.00 0.00 0.03 0.05 0.09 0.12
0.03 0.01 0.00 0.00 0.00 0.00 0.00 0.00 0.00 0.00 0.00 0.00 0.00 0.00 0.00 0.00 0.00 0.00 0.00 0.00 0.00 0.00 0.00 0.00 0.00 0.01 0.00 0.01 0.02 0.02 0.01 0.01 0.00 0.00 0.00 0.00 0.00 0.00 0.00 0.00 0.03 0.12 0.14 0.10
MSLP
1003.91 1003.03 1001.70 1001.02 1000.97 1000.55 1001.49 1002.45 1003.00 1003.44 1003.29 1003.43 1003.13 1002.95 1003.13 1004.23 1005.37 1005.78 1005.62 1005.61 1006.19 1006.61 1006.97 1007.66 1008.45 1009.25 1010.18 1011.17 1012.25 1012.94 1013.50 1014.26 1014.87 1015.02 1014.91 1014.70 1014.63 1014.88 1014.90 1014.77 1015.60 1016.16 1015.95 1016.39
1002.78 1001.99 1001.28 1001.02 1000.64 1000.85 1001.28 1001.33 1002.27 1003.07 1003.00 1002.99 1002.28 1002.09 1002.04 1002.88 1003.69 1004.42 1004.94 1005.26 1005.60 1005.74 1006.51 1006.97 1007.96 1008.58 1009.63 1010.77 1011.67 1012.65 1013.25 1014.08 1014.67 1014.67 1014.61 1014.49 1014.49 1014.56 1014.64 1014.67 1015.52 1015.88 1015.87 1016.17
1001.33 1000.93 1001.30 1000.75 1000.88 1001.25 1001.01 1000.65 1000.71 1001.35 1002.35 1002.27 1001.91 1001.44 1001.50 1001.73 1002.67 1003.25 1003.74 1004.44 1004.78 1005.19 1005.76 1006.27 1007.11 1007.98 1008.89 1010.10 1011.20 1012.16 1012.97 1013.62 1014.29 1014.22 1014.65 1014.83 1014.62 1014.54 1014.72 1015.06 1015.25 1015.69 1015.80 1016.04
1001.16 1000.97 1000.98 1000.74 1000.92 1000.96 1000.33 1000.65 1000.68 1001.75 1001.76 1000.80 1001.80 1000.65 1001.89 1000.72 1001.36 1002.42 1002.89 1003.32 1003.79 1004.37 1004.93 1005.72 1006.31 1007.22 1007.92 1009.15 1010.53 1011.50 1012.64 1013.24 1013.92 1014.22 1014.17 1014.56 1014.43 1014.24 1014.21 1014.60 1014.72 1015.23 1015.60 1015.80
1000.53 1000.61 1000.43 1000.78 1000.66 1000.83 1000.12 1000.03 1000.17 1000.67 1001.13 1000.91 1000.19 1000.13 999.62 999.86 1000.18 1001.02 1001.86 1002.03 1002.80 1003.15 1003.89 1004.68 1005.18 1006.25 1007.06 1008.30 1009.62 1010.74 1012.04 1012.79 1013.19 1013.89 1014.02 1014.39 1014.52 1014.00 1014.34 1014.09 1014.59 1014.97 1015.28 1015.57
1000.61 1000.31 1000.57 1000.33 1000.59 1000.50 1000.54 1000.39 1000.51 1000.64 1000.31 999.75 999.27 1000.01 998.92 999.47 999.10 999.62 1000.18 1001.07 1001.45 1002.48 1003.10 1004.03 1004.76 1005.64 1006.53 1007.62 1008.91 1010.06 1011.42 1012.25 1012.84 1013.41 1013.97 1014.05 1014.15 1014.08 1014.24 1014.46 1014.61 1014.66 1014.82 1015.08
1000.28 1000.27 1000.38 1000.42 999.87 999.94 1000.23 1000.04 999.66 999.37 998.90 998.43 998.95 999.22 998.30 998.85 999.21 999.15 999.38 999.87 1000.54 1001.14 1002.06 1003.35 1004.08 1005.24 1005.90 1007.08 1008.34 1009.36 1010.81 1011.73 1012.37 1012.81 1013.34 1013.76 1014.04 1014.20 1014.19 1014.56 1014.35 1014.55 1014.62 1014.37
998.65 998.68 999.36 999.74 999.34 998.96 999.43 999.12 998.30 997.66 997.49 997.28 998.29 997.81 997.60 998.13 998.63 999.02 999.38 999.51 999.86 1000.61 1001.17 1002.45 1003.34 1004.82 1005.78 1006.68 1007.86 1008.68 1009.98 1011.15 1011.86 1012.28 1012.71 1013.26 1013.70 1013.76 1014.02 1013.98 1014.18 1014.08 1013.98 1014.46
997.69 997.49 997.83 998.70 999.01 999.07 998.32 998.51 997.98 997.19 998.88 998.58 999.77 998.03 997.54 998.08 998.53 998.70 998.76 999.45 999.78 1000.09 1000.79 1001.89 1003.04 1004.59 1005.86 1006.61 1007.42 1008.26 1009.25 1010.38 1011.02 1011.56 1012.16 1012.67 1013.12 1013.35 1013.12 1013.28 1013.78 1013.93 1014.01 1013.91
998.25 997.84 997.42 997.85 998.32 998.37 997.90 997.75 997.98 997.31 997.15 997.97 997.72 997.36 996.48 997.39 997.94 998.13 998.76 999.20 999.70 1000.20 1000.75 1001.69 1002.74 1003.85 1005.40 1006.35 1006.98 1007.86 1008.66 1009.60 1010.31 1010.87 1011.44 1011.99 1012.46 1012.86 1012.98 1013.01 1013.35 1013.25 1013.52 1013.89
998.43 998.01 997.38 997.44 997.57 997.31 997.87 997.61 997.26 996.66 996.62 996.35 996.29 995.60 995.30 996.81 997.61 998.07 998.58 998.91 999.91 1000.67 1001.18 1001.88 1002.80 1003.61 1004.79 1005.98 1006.47 1007.54 1008.34 1009.11 1009.65 1010.19 1010.62 1011.13 1011.59 1012.02 1012.53 1012.69 1012.89 1013.14 1013.31 1013.57
998.14 997.84 997.17 996.41 997.06 997.47 996.82 996.95 996.47 996.38 996.80 996.58 996.41 995.88 995.94 996.12 997.08 998.10 998.69 999.94 1000.53 1000.98 1001.86 1002.42 1003.12 1003.86 1004.43 1005.37 1006.11 1006.91 1007.86 1008.41 1009.02 1009.51 1010.19 1010.53 1010.93 1011.26 1011.50 1012.07 1012.26 1012.72 1012.92 1013.08
998.26 998.08 997.07 996.38 996.24 996.75 996.44 996.31 996.42 996.30 996.22 996.28 996.78 995.57 995.98 996.88 997.34 997.98 999.40 1000.17 1001.19 1001.62 1002.28 1002.94 1003.62 1004.38 1004.88 1005.40 1006.09 1006.62 1007.18 1007.90 1008.48 1009.23 1009.69 1010.19 1010.47 1010.77 1010.99 1011.22 1011.64 1011.84 1012.58 1012.98
999.80 998.04 997.19 995.70 995.27 995.39 996.11 996.54 996.02 995.63 995.77 995.87 995.53 996.05 996.83 997.21 997.39 998.18 999.03 1000.42 1001.35 1001.89 1002.70 1003.24 1003.97 1004.81 1005.50 1006.04 1006.62 1007.06 1007.38 1007.72 1008.40 1008.72 1009.38 1009.64 1010.11 1010.30 1010.37 1010.70 1010.98 1011.13 1011.66 1012.34
1000.09 998.63 997.65 996.56 996.10 996.53 994.92 995.55 995.88 995.68 995.47 995.53 995.79 995.51 995.68 996.49 997.50 998.10 999.11 1000.73 1001.48 1002.33 1002.91 1003.64 1004.36 1005.28 1005.97 1006.57 1007.03 1007.48 1007.73 1008.13 1008.34 1008.84 1009.08 1009.37 1009.61 1010.01 1010.60 1010.34 1010.59 1010.67 1011.07 1011.47
999.74 998.87 998.38 996.94 995.91 996.00 995.44 994.78 994.92 995.33 995.55 995.58 995.69 997.15 996.10 996.08 996.97 997.88 998.80 1000.38 1001.67 1002.35 1002.95 1003.89 1004.77 1005.56 1006.18 1006.82 1007.27 1007.58 1007.90 1008.28 1008.66 1008.91 1009.08 1009.19 1009.51 1009.94 1010.14 1010.24 1010.26 1010.50 1010.71 1010.68
1000.38 998.98 998.42 997.25 996.48 995.62 995.10 994.51 994.59 994.86 995.53 995.80 995.56 995.73 995.89 996.49 997.71 998.22 998.46 999.98 1001.46 1002.35 1003.30 1004.26 1005.12 1005.85 1006.67 1007.27 1007.82 1008.19 1008.58 1008.87 1009.12 1009.45 1009.61 1009.69 1009.88 1010.04 1010.21 1010.21 1010.14 1009.80 1009.87 1009.97
1000.85 1000.14 999.18 997.93 997.11 996.68 994.85 994.51 994.48 994.63 995.16 995.55 995.95 996.43 997.02 997.68 998.26 998.95 999.34 999.88 1001.17 1002.41 1003.54 1004.48 1005.35 1006.27 1007.25 1007.65 1007.91 1008.44 1008.72 1009.10 1009.27 1009.45 1009.76 1009.99 1010.09 1010.07 1010.10 1010.03 1009.98 1009.79 1009.71 1009.68
1000.40 1001.07 999.73 998.76 997.99 998.53 995.28 995.09 995.31 994.96 995.27 995.78 996.12 996.90 997.58 998.77 999.40 1000.33 1000.77 1001.13 1001.95 1003.02 1003.93 1004.93 1005.73 1006.61 1007.57 1007.97 1008.83 1009.05 1009.11 1009.34 1009.57 1009.65 1010.06 1010.31 1010.43 1010.46 1010.40 1010.22 1009.97 1009.49 1009.14 1009.03
999.82 1000.76 1000.90 999.56 999.05 998.14 997.19 994.70 995.02 995.50 995.54 995.96 996.43 997.35 998.05 999.75 999.86 999.76 1001.41 1002.24 1002.89 1003.60 1004.67 1005.48 1006.04 1007.02 1007.78 1008.59 1009.11 1009.30 1009.22 1009.46 1009.54 1010.36 1010.62 1010.72 1010.85 1010.88 1010.60 1010.38 1010.21 1009.85 1009.22 1008.48
999.06 999.77 1000.22 1000.07 998.41 996.80 995.70 995.86 996.36 996.03 995.91 995.44 996.65 997.58 998.44 999.66 1000.70 1001.57 1002.29 1002.87 1003.55 1004.31 1005.25 1005.91 1006.55 1007.29 1008.09 1008.87 1009.10 1009.69 1009.55 1009.87 1010.60 1010.85 1010.91 1011.30 1011.64 1011.46 1011.04 1010.53 1010.23 1009.87 1009.22 1008.40
998.63 999.29 998.80 999.97 998.97 996.52 996.10 996.49 996.12 996.12 996.53 996.80 997.33 998.06 998.86 999.96 1001.63 1002.37 1002.90 1003.67 1004.14 1004.95 1005.85 1006.46 1007.01 1007.86 1009.32 1009.47 1009.96 1009.94 1010.08 1010.48 1010.97 1011.10 1011.38 1011.85 1011.96 1011.85 1011.49 1011.04 1010.41 1009.69 1008.72 1008.00
998.91 997.67 997.37 998.29 998.07 997.44 997.09 996.44 995.98 996.13 996.94 997.70 998.33 999.08 999.75 1000.57 1001.58 1002.49 1003.22 1003.97 1004.63 1005.32 1005.86 1006.56 1007.23 1008.78 1009.72 1010.04 1010.04 1010.01 1010.45 1010.71 1010.78 1011.24 1011.75 1012.14 1012.24 1012.39 1012.32 1011.88 1010.94 1009.75 1008.26 1007.38
999.55 997.39 996.72 997.73 997.97 997.87 997.42 996.37 996.17 996.65 997.26 998.23 998.79 999.57 1000.10 1000.84 1001.77 1002.61 1003.48 1004.10 1004.94 1006.16 1007.05 1007.86 1008.57 1009.29 1009.93 1010.11 1009.93 1010.18 1010.45 1010.70 1011.16 1011.52 1011.89 1012.48 1012.67 1012.65 1012.87 1012.73 1011.83 1010.76 1009.32 1007.89
1000.89 998.97 997.52 997.82 997.98 998.50 998.49 996.85 996.65 997.10 997.91 998.77 999.49 1000.16 1000.73 1001.25 1002.15 1002.97 1003.93 1005.00 1005.82 1006.66 1007.31 1007.95 1008.49 1009.06 1009.55 1009.97 1009.92 1010.16 1010.38 1010.78 1011.25 1011.53 1011.72 1012.35 1012.90 1013.23 1013.21 1013.32 1013.17 1012.26 1011.42 1010.25
1001.77 999.88 997.90 996.89 998.09 997.88 998.61 997.86 997.69 998.13 999.02 999.71 1000.23 1000.86 1001.54 1002.00 1002.72 1003.63 1004.59 1005.52 1006.27 1007.10 1007.77 1008.27 1008.77 1009.32 1009.76 1009.77 1010.04 1009.93 1010.12 1010.80 1011.05 1011.12 1011.84 1012.49 1013.20 1013.63 1013.34 1014.22 1013.97 1013.36 1012.55 1011.93
Thickness
5796 5784 5784 5803 5814 5824 5812 5795 5783 5790 5808 5798 5798 5800 5806 5806 5795 5791 5794 5797 5794 5794 5801 5800 5796 5793 5787 5780 5773 5769 5766 5762 5759 5759 5759 5763 5765 5768 5772 5775 5770 5768 5771 5770
5790 5779 5805 5815 5819 5811 5805 5803 5789 5794 5806 5801 5804 5802 5815 5811 5805 5802 5799 5798 5798 5800 5798 5801 5797 5796 5789 5781 5777 5771 5768 5764 5761 5763 5766 5768 5770 5772 5775 5776 5772 5771 5773 5773
5788 5799 5808 5807 5800 5791 5799 5803 5808 5800 5799 5808 5804 5798 5802 5814 5813 5811 5811 5809 5807 5803 5799 5801 5799 5797 5795 5786 5780 5774 5770 5767 5765 5768 5766 5765 5769 5772 5772 5773 5776 5774 5775 5775
5792 5807 5798 5796 5788 5797 5785 5812 5810 5788 5785 5782 5802 5778 5763 5814 5807 5805 5808 5811 5811 5810 5809 5806 5805 5800 5800 5795 5789 5782 5774 5771 5768 5769 5768 5764 5765 5766 5775 5777 5780 5778 5776 5776
5787 5791 5792 5782 5790 5799 5794 5821 5813 5802 5788 5790 5802 5790 5802 5819 5804 5805 5808 5816 5817 5819 5816 5811 5813 5809 5809 5804 5795 5789 5780 5775 5775 5771 5771 5767 5765 5774 5775 5780 5777 5779 5778 5778
5792 5812 5800 5798 5801 5803 5808 5799 5798 5798 5797 5777 5807 5791 5801 5798 5814 5819 5823 5821 5825 5821 5823 5819 5820 5816 5811 5808 5800 5793 5783 5778 5777 5774 5770 5770 5769 5770 5770 5771 5773 5778 5781 5782
5781 5784 5798 5802 5790 5803 5795 5785 5764 5765 5778 5781 5808 5787 5810 5819 5823 5828 5828 5829 5831 5833 5827 5819 5817 5812 5812 5805 5799 5796 5786 5778 5778 5776 5774 5772 5771 5770 5770 5769 5775 5774 5778 5784
5770 5764 5788 5800 5794 5790 5786 5791 5779 5760 5781 5801 5812 5792 5813 5832 5834 5833 5832 5835 5838 5834 5835 5825 5823 5814 5811 5806 5801 5798 5789 5781 5779 5778 5777 5775 5773 5774 5773 5776 5776 5779 5781 5781
5781 5779 5809 5802 5804 5800 5793 5776 5818 5806 5786 5781 5758 5804 5827 5829 5825 5829 5832 5829 5831 5834 5834 5829 5825 5815 5807 5803 5800 5798 5793 5785 5784 5782 5780 5778 5776 5775 5778 5780 5779 5780 5782 5787
5785 5762 5802 5800 5806 5806 5801 5819 5780 5800 5767 5749 5771 5786 5803 5808 5813 5827 5822 5825 5829 5833 5833 5830 5825 5820 5811 5807 5806 5801 5797 5789 5786 5785 5782 5780 5778 5777 5777 5779 5777 5782 5783 5784
5787 5778 5783 5797 5782 5784 5785 5784 5797 5815 5809 5785 5780 5802 5843 5818 5821 5821 5825 5833 5825 5824 5826 5825 5822 5821 5815 5808 5808 5801 5796 5790 5788 5786 5785 5782 5781 5780 5778 5778 5778 5778 5780 5781
5789 5779 5766 5787 5803 5805 5810 5796 5808 5787 5778 5800 5794 5796 5840 5837 5832 5826 5823 5817 5821 5824 5820 5820 5817 5815 5813 5809 5806 5802 5797 5793 5791 5789 5784 5783 5782 5782 5782 5778 5780 5779 5778 5780
5785 5764 5758 5772 5798 5802 5792 5804 5809 5814 5815 5789 5767 5800 5836 5828 5826 5828 5814 5813 5812 5815 5814 5813 5810 5806 5805 5804 5800 5799 5798 5794 5792 5786 5783 5779 5779 5779 5779 5781 5780 5782 5777 5775
5764 5771 5765 5771 5790 5805 5778 5783 5803 5810 5786 5792 5802 5792 5803 5807 5813 5814 5814 5807 5806 5808 5806 5807 5804 5799 5798 5796 5793 5791 5791 5793 5788 5787 5781 5779 5776 5776 5778 5778 5779 5781 5780 5775
5754 5744 5768 5784 5791 5783 5801 5788 5790 5792 5804 5787 5792 5808 5818 5813 5807 5812 5810 5801 5798 5795 5796 5796 5794 5790 5790 5787 5785 5784 5784 5782 5784 5778 5777 5777 5777 5776 5770 5776 5776 5778 5777 5776
5758 5739 5757 5764 5792 5786 5779 5801 5802 5799 5800 5801 5803 5775 5816 5828 5824 5814 5809 5799 5790 5791 5793 5790 5787 5784 5782 5780 5778 5778 5776 5774 5773 5771 5770 5773 5772 5769 5767 5767 5770 5771 5771 5775
5730 5746 5748 5744 5778 5783 5767 5792 5798 5799 5800 5796 5785 5806 5821 5810 5803 5806 5814 5800 5790 5789 5787 5783 5780 5777 5773 5769 5768 5765 5763 5763 5760 5757 5757 5759 5759 5760 5760 5761 5761 5765 5769 5773
5719 5727 5742 5743 5763 5712 5787 5814 5810 5800 5800 5804 5800 5799 5798 5795 5800 5802 5806 5800 5792 5788 5783 5779 5776 5770 5763 5762 5761 5758 5756 5753 5751 5750 5748 5749 5750 5753 5755 5757 5756 5758 5763 5765
5731 5710 5723 5725 5731 5718 5781 5786 5782 5781 5780 5798 5791 5790 5791 5786 5786 5777 5789 5791 5786 5780 5778 5772 5770 5764 5756 5754 5747 5745 5744 5742 5740 5740 5737 5738 5738 5739 5743 5746 5749 5755 5759 5762
5728 5716 5704 5721 5702 5706 5738 5795 5802 5794 5754 5792 5790 5781 5779 5771 5754 5773 5778 5778 5775 5773 5768 5762 5762 5755 5749 5743 5739 5735 5735 5733 5733 5726 5725 5726 5726 5727 5731 5736 5738 5743 5750 5757
5704 5701 5687 5704 5714 5731 5776 5772 5783 5742 5757 5795 5788 5781 5776 5761 5761 5766 5770 5768 5766 5762 5757 5755 5751 5744 5738 5735 5733 5723 5724 5722 5717 5716 5716 5713 5711 5714 5719 5724 5728 5732 5739 5748
5701 5689 5697 5692 5700 5722 5766 5766 5755 5769 5780 5781 5780 5777 5771 5767 5757 5756 5757 5753 5754 5749 5746 5743 5739 5733 5720 5721 5715 5714 5712 5711 5706 5705 5703 5698 5699 5700 5705 5709 5715 5722 5732 5739
5688 5716 5719 5716 5727 5756 5756 5769 5783 5785 5772 5770 5768 5767 5764 5758 5753 5751 5747 5746 5744 5742 5741 5739 5732 5717 5709 5708 5707 5704 5702 5700 5700 5696 5691 5687 5686 5685 5687 5691 5699 5711 5726 5736
5687 5726 5726 5715 5731 5736 5750 5768 5779 5776 5770 5767 5767 5762 5760 5752 5750 5745 5742 5741 5736 5728 5722 5718 5712 5705 5699 5700 5701 5697 5694 5692 5688 5684 5681 5675 5673 5672 5671 5671 5677 5688 5703 5719
5667 5699 5715 5712 5724 5728 5736 5756 5766 5767 5765 5759 5758 5754 5750 5748 5742 5738 5732 5726 5723 5719 5716 5713 5708 5702 5698 5695 5696 5691 5688 5684 5679 5678 5676 5671 5663 5656 5655 5654 5652 5660 5667 5682
5668 5685 5702 5709 5721 5723 5721 5745 5755 5751 5747 5745 5742 5739 5739 5737 5732 5728 5722 5718 5715 5709 5706 5702 5699 5694 5691 5691 5688 5688 5686 5680 5676 5675 5669 5664 5654 5645 5642 5633 5636 5637 5645 5653